{"data":{"norad_id":60917,"epoch":"2026-05-24T19:39:56.310336Z","epoch_age_seconds":94117,"freshness":"FRESH","line1":"1 60917U 24154Q   26144.81940174  .00000441  00000+0  27006-4 0  9997","line2":"2 60917  53.1615 290.0251 0001061  81.6223 278.4898 15.30195707 97993","mean_motion":15.30195707,"eccentricity":0.0001061,"inclination_deg":53.1615,"raan_deg":290.0251,"arg_perigee_deg":81.6223,"mean_anomaly_deg":278.4898,"bstar":2.7006e-5,"rev_number":9799,"period_min":94.105609721202,"perigee_km":474.5007455589,"apogee_km":475.95502958805,"semimajor_km":6853.3648875735,"source":"CELESTRAK","updated_at":"2026-05-25T13:38:19.314980Z"}}